Weather in Zakolpye

Russia / Vladimir Oblast     55°31′32″N   40°59′54″E
temp.,
°C
wind,
m/s
gust,
m/s
humid.,
%
clouds,
%
prec.,
mm/h
press.,
hPa
HPBL,
m
1 march, mon
mon100:00−11nne129766 0.1 102121
03:00−12nw129783 0.1 102221
06:00−11w229798 0.0 102321
09:00−9wsw239699 0.1 102499
12:00−3wsw468896 0.0 1023546
15:00−2wsw488995 0.1 1021660
18:00−2wsw41092100 0.1 1019624
21:00−1wsw51293100 0.1 1016656
2 march, tue
tue200:00+1w51294100 0.1 1013624
03:00+1w41195100 0.1 1011581
06:00+1w51194100 0.0 1007829
09:00+1wnw51198100 0.4 1007813
12:00+1nw5109299 0.3 10051017
15:00+1nw5108780 0.4 10061025
18:00−1nw41092100 0.2 1006650
21:00−2wnw4119398 0.3 1007539
3 march, wed
wed300:00−3nw5119597 0.5 1007688
03:00−4nw5128799 0.9 1009672
06:00−8nw4129262 0.0 1010637
09:00−6nw5119081 0.1 1012673
12:00−4nw5108096 0.1 1013883
15:00−2wnw598665 0.1 1012989
18:00−3w4119394 0.2 1011641
21:00−4w3119497 0.3 1012420
4 march, thu
thu400:00−3w41093100 0.2 1010552
03:00−5wsw4119485 0.2 1008441
06:00−2sw51392100 0.0 1005754
09:00−1wsw71489100 0.1 1001885
12:000wsw71395100 0.4 9991062
15:000wsw61296100 1.1 998874
18:00−1wsw61297100 1.6 995872
21:000wnw71297100 3.1 996952
5 march, fri
fri500:00−4nw3993100 0.8 999605
03:00−8nw399452 0.8 1004245
06:00−11wnw25961 0.0 100795
09:00−9wnw24931 0.0 1009205
12:00−5wnw24850 0.0 1010536
15:00−4wnw24818 0.0 1012794
18:00−8nw119045 0.0 101321
21:00−10se019123 0.0 101421